STARLINK-2232, 48578

Orbit data source: Space-Track

STARLINK-2232, 48578 is a payload satellite owned by SpaceX/Seattle (US) in LEO that was launched on Sat, 15 May 2021 UTC via an FALCON 9 launch vehicle from the Air Force Eastern Test Range (AFETR). Payload-class satellites include a variety of spacecraft equipped with specific instruments for various scientific and technological missions. These include communications satellites like Starlink; space stations such as the ISS; scientific satellites like the Hubble; Earth observation satellites from companies like Planet Labs, Umbra, and HawkEye 360; GPS; miniature CubeSats for education and research; and military/defense satellites.

Loading next visibility...
Identifier
48578, 2021-041AB
Orbit
LEO
Country
Flag of USUS
Related business
Manufacturer
SpaceX/Seattle
Mission
Operational Commercial Communications
Bus & Motor
STARLINK, Unknown motor
Mass
260 kg wet, ~248 kg dry
Launch date (UTC)
2021-05-15 (5 years ago)
Launch vehicle
FALCON 9
Launch site
Air Force Eastern Test Range (AFETR)
Object type
Payload
Rocket body
Debris
Shape & HBR
Box + 1 Pan, 10.1 m
Radar Cross Section
13.562 m², Large (>1 m²)

Expand to show TLE details & history
Last TLE update: 9 hours ago

TLE from 9 hours ago
0 STARLINK-2232
1 48578U 21041AB  25346.90806180 -.00001372  00000-0 -73245-4 0  9992
2 48578  53.0534 161.7072 0001488  84.9478 275.1681 15.06391047252116
Epoch: 2025-12-12T21:47Z
TLE epoch observation values (Epoch: 2025-12-12T21:47:36.539Z)
Latitude
-0.00001°
Longitude
112.96201°
Altitude
548.025 km
Speed
7.589 km/s
True Right ascension
10h 46m 49s
True Declination
0° 00' 00"
Sunlit
Object was in daylight at epoch
Visualization orbit readout
Latitude
Unknown
Longitude
Unknown
Altitude
Unknown
Speed
Unknown
Apparent Right ascension
Unknown
Apparent Declination
Unknown
Sunlit
N/A
Visualization observer readout
Local Sidereal Time
05:23:54
Azimuth
Unknown
Elevation
Unknown
Doppler factor
Unknown
Orbital elements
Apogee altitude
548.54 km
Perigee altitude
546.479 km
Semi-major axis
6,925.647 km
Eccentricity
0.00015
Inclination
53.0534°
RAAN
161.7072°
Arg. of periapsis
84.9478°
True anomaly
275.15112°
Mean anomaly
275.1681°
Eccentric anomaly
275.15961°
Mean motion
3.76576 °/min
Orbital period
95.6 mins
BSTAR
-0.000073245
Loading maneuver chart data...
Computing Atmospheric mass density...
Loading historical data...
Loading historical data...
Loading historical data...
Loading historical data...
Loading historical data...
Loading historical data...
Loading historical data...

Documentation

Showing up to 5 results
|